Olympia, WA
on Saturday, January 12, 2013

Saturday
Previous Day Next Day
Daily Summary
 ActualAverageRecord
Temperature
Mean Temperature °F 40°F  
Max Temperature 38°F 45°F 56°F (1981)
Min Temperature 19°F 34°F 5°F (1963)
Degree Days
Heating Degree Days 36 25  
Month to date heating degree days 329 310  
Since 1 July heating degree days 2492 2580  
Cooling Degree Days 0 0  
Month to date cooling degree days 0 0  
Year to date cooling degree days 0 0  
Moisture
Dew Point 23°F   
Average Humidity 82    
Maximum Humidity 100    
Minimum Humidity 64    
Precipitation
Precipitation 0.00 in 0.27 in 1.30 in (1975)
Month to date precipitation 2.76 3.10  
Year to date precipitation 2.76 3.10  
Wind
Wind Speed 2 mph   
Max Wind Speed 12 mph   
Max Gust Speed 13 mph   
Visibility 4 miles   
Events Fog   

Key: T is trace of precipitation, MM is missing value
Source: NWS Daily Summary
Time(PST)TemperatureDew PointHumidity Pressure Visibility Wind DirectionWind SpeedGust SpeedPrecipitationEvents Conditions
12:50 AM 23.0°F 21.2°F 93% 30.32 in 1.8 miles Calm Calm - N/A   Clear
12:54 AM 21.9°F 21.0°F 96% 30.33 in 1.0 miles Calm Calm - N/A   Clear
1:01 AM 21.9°F 21.0°F 96% 30.32 in 2.0 miles South 3.5 mph - N/A   Partly Cloudy
1:10 AM 21.9°F 21.0°F 96% 30.32 in 4.0 miles Calm Calm - N/A   Clear
1:45 AM 23.0°F 21.9°F 96% 30.32 in 2.5 miles Calm Calm - N/A   Clear
1:54 AM 24.1°F 21.9°F 91% 30.33 in 4.0 miles Calm Calm - N/A   Clear
2:54 AM 21.9°F 21.0°F 96% 30.34 in 4.0 miles Calm Calm - N/A   Clear
3:54 AM 21.9°F 19.9°F 92% 30.34 in 5.0 miles Calm Calm - N/A   Clear
4:12 AM 21.9°F 21.0°F 96% 30.33 in 1.5 miles Calm Calm - N/A   Clear
4:15 AM 21.0°F 19.9°F 96% 30.33 in 0.8 miles Calm Calm - N/A   Clear
4:41 AM 21.9°F 19.9°F 92% 30.33 in 1.2 miles Calm Calm - N/A   Clear
4:43 AM 21.9°F 19.9°F 92% 30.33 in 2.0 miles Calm Calm - N/A   Clear
4:50 AM 21.2°F 19.4°F 93% 30.33 in 5.0 miles Calm Calm - N/A   Clear
4:54 AM 21.9°F 19.9°F 92% 30.34 in 5.0 miles Calm Calm - N/A   Clear
5:54 AM 21.0°F 18.0°F 88% 30.35 in 6.0 miles Calm Calm - N/A   Clear
6:51 AM 21.2°F 19.4°F 93% 30.35 in 7.0 miles Calm Calm - N/A   Scattered Clouds
6:54 AM 21.9°F 19.0°F 89% 30.36 in 7.0 miles Calm Calm - N/A   Mostly Cloudy
7:47 AM 23.0°F 21.9°F 96% 30.36 in 1.2 miles Calm Calm - N/A   Overcast
7:54 AM 23.0°F 23.0°F 100% 30.37 in 0.2 miles Calm Calm - N/A Fog Light Freezing Fog
8:54 AM 26.1°F 25.0°F 96% 30.39 in 0.2 miles Calm Calm - N/A Fog Light Freezing Fog
9:54 AM 28.4°F 26.6°F 93% 30.38 in 0.2 miles Calm Calm - N/A Fog Light Freezing Fog
10:54 AM 30.9°F 28.0°F 89% 30.40 in 0.2 miles Calm Calm - N/A Fog Light Freezing Fog
11:27 AM 33.1°F 28.9°F 85% 30.39 in 0.5 miles Calm Calm - N/A Fog Fog
11:35 AM 33.1°F 30.0°F 89% 30.39 in 1.0 miles Calm Calm - N/A   Mostly Cloudy
11:54 AM 33.1°F 30.0°F 89% 30.39 in 2.0 miles NNE 3.5 mph - N/A   Mostly Cloudy
12:03 PM 33.1°F 30.0°F 89% 30.38 in 4.0 miles NNE 3.5 mph - N/A   Mostly Cloudy
12:54 PM 34.0°F 28.9°F 82% 30.38 in 4.0 miles NNE 4.6 mph - N/A   Haze
1:54 PM 34.0°F 28.0°F 79% 30.39 in 10.0 miles NNE 5.8 mph - N/A   Mostly Cloudy
2:54 PM 36.0°F 27.0°F 70% 30.40 in 10.0 miles North 8.1 mph - N/A   Mostly Cloudy
3:54 PM 36.0°F 25.0°F 64% 30.40 in 10.0 miles ENE 6.9 mph - N/A   Scattered Clouds
4:54 PM 32.0°F 24.1°F 73% 30.40 in 10.0 miles NNE 4.6 mph - N/A   Scattered Clouds
5:54 PM 28.0°F 24.1°F 85% 30.40 in 10.0 miles Calm Calm - N/A   Scattered Clouds
6:54 PM 25.0°F 21.9°F 88% 30.42 in 9.0 miles Calm Calm - N/A   Clear
7:54 PM 27.0°F 24.1°F 89% 30.42 in 9.0 miles Calm Calm - N/A   Clear
8:54 PM 23.0°F 21.9°F 96% 30.43 in 7.0 miles SSE 3.5 mph - N/A   Clear
9:54 PM 21.9°F 21.0°F 96% 30.43 in 4.0 miles Calm Calm - N/A   Clear
10:54 PM 21.0°F 19.0°F 92% 30.44 in 5.0 miles Calm Calm - N/A   Clear
11:13 PM 19.9°F 19.0°F 96% 30.44 in 2.0 miles Calm Calm - N/A   Clear
11:24 PM 21.0°F 19.0°F 92% 30.44 in 4.0 miles Calm Calm - N/A   Clear
11:39 PM 21.9°F 19.9°F 92% 30.44 in 1.8 miles Calm Calm - N/A   Clear
11:54 PM 19.0°F 18.0°F 96% 30.45 in 2.5 miles Calm Calm - N/A   Clear
Moon Phase
Jan. 12 Jan. 18 Jan. 26 Feb. 03 Feb. 10
Sunrise:07:54 AM (PST) Moon Rise:08:10 AM (PST)1/12
Sunset:04:46 PM (PST) Moon Set:06:30 PM (PST)1/12

Copyright © 2014 The Weather Underground, Inc.